Regional Weather Roundup
Issued by NWS Sioux Falls, SD

Home | Current Version | Previous Version | Text Only | Print | Product List | Glossary On
Versions: 1 2 3 4 5 6 7 8 9 10 11 12 13 14 15 16 17 18 19 20 21 22 23 24 25 26 27 28 29 30 31 32 33 34 35 36 37 38 39 40 41 42 43 44 45 46 47 48 49 50
000
ASUS43 KFSD 171510
RWRFSD

WEATHER ROUNDUP FOR SE SOUTH DAKOTA/SW MINNESOTA/NW IOWA
NATIONAL WEATHER SERVICE SIOUX FALLS SD
1000 AM CDT WED SEP 17 2014

NOTE: "FAIR" INDICATES FEW OR NO CLOUDS BELOW 12,000 FEET WITH NO
SIGNIFICANT WEATHER AND OR OBSTRUCTIONS TO VISIBILITY.


SDZ038>040-050-052>070-171600-
SOUTHEAST SOUTH DAKOTA

CITY           SKY/WX    TMP DP  RH WIND       PRES   REMARKS
CHAMBERLAIN    SUNNY     58  57  99 CALM      29.93S
HURON          SUNNY     58  52  80 N3        29.94R
MADISON        FAIR      57  57 100 CALM      29.94S
MITCHELL       SUNNY     59  54  83 CALM      29.94R
SIOUX FALLS    MOSUNNY   62  53  72 CALM      29.93S
WINNER         FAIR      65  58  78 E5        29.93R
YANKTON        SUNNY     61  55  82 CALM      29.92S
$$

MNZ071-072-080-081-089-090-097-098-171600-
SOUTHWEST MINNESOTA

CITY           SKY/WX    TMP DP  RH WIND       PRES   REMARKS
FAIRMONT       SUNNY     61  48  63 CALM      29.95S
JACKSON        SUNNY     61  50  67 S5        29.95S
LUVERNE        SUNNY     59  50  72 CALM      29.95S
MARSHALL       SUNNY     61  52  72 NW3       29.93S
MONTEVIDEO     SUNNY     66  61  82 CALM      29.94S
PIPESTONE      SUNNY     61  52  72 CALM      29.94S
REDWOOD FALLS  SUNNY     61  51  70 SW3       29.94R
TRACY          SUNNY     64  55  71 CALM      29.94S
WINDOM         SUNNY     63  54  72 S7        29.94S
WORTHINGTON    PTSUNNY   61  52  72 SW3       29.96R
$$

IAZ001>003-012>014-020>022-031-032-NEZ013-014-SDZ071-171600-
NORTHWEST IOWA

CITY           SKY/WX    TMP DP  RH WIND       PRES   REMARKS
CHEROKEE       SUNNY     61  56  82 CALM      29.95S
DENISON        SUNNY     63  57  82 CALM      29.93S
ESTHERVILLE    PTSUNNY   56  51  84 S7        29.95S
LE MARS        SUNNY     63  55  77 VRB3      29.94S
ORANGE CITY    SUNNY     63  54  72 SW7       29.94R
SHELDON        SUNNY     61  54  77 S6        29.93S
SIOUX CITY     SUNNY     64  55  72 S3        29.93F
SPENCER        SUNNY     61  52  72 CALM      29.95S
STORM LAKE     SUNNY     61  57  88 CALM      29.95S
$$

ABBREVIATIONS USED IN REMARKS
   TC - TEMPERATURE IN CELSIUS
  WCI - WIND CHILL INDEX
   HX - HEAT INDEX
  VSB - VISIBILITY




USA.gov is the U.S. government's official web portal to all federal, state and local government web resources and services.